Find OneWeb SL0247

NORAD ID: 48777 Int'l Des: 2021-045 Owner: ONEWEBN Country: UK Constellation: oneweb operational
LEOCIRCULARPOLARONEWEB_TYPE

实时位置

正在加载3D地球...

关于 OneWeb SL0247

正在加载描述...

即将过境

Passes for default location (London). Set your location on the main map for personalized predictions.

高度历史

Loading altitude history...

两行轨道根数

1 48777U 21045L 26127.38059780 .00000221 00000-0 55232-3 0 9998
2 48777 87.8967 267.3490 0002189 78.2968 281.8408 13.15548906239042
Epoch: May 7, 2026 • Age: 13 hours

当前状态

高度 1207.8 km
速度 7.25 km/s
星下点 -14.89°S, 73.38°E
发射日期 May 28, 2021
运行时间 4.9 years
类型 internet

技术详情

分类 Payload
质量 148.00 kg
干质量 140.00 kg
总质量 148.00 kg
长度 1.30 m
直径 1.00 m
跨度 5.00 m
形状 Trapezoid+2 pan
制造商 ONEWUS
平台类型 ARROW
阶段状态 In Orbit
所有者/国家 ONEWEBN/UK

Most Searched